| time (UTC) | temp C | wind direction | speed KPH | gust KPH | rain 1hr cm | rain 24hr cm | rain mn cm | humidity % | barometer mb |
| 20260505101956 | 13 | 296 | 0.0 | 6.4 | 0.00 | 0.00 | 0.00 | 74 | 1010.8 |
| 20260505101851 | 13 | 193 | 0.0 | 6.4 | 0.00 | 0.00 | 0.00 | 74 | 1010.8 |
| 20260505101525 | 13 | 194 | 0.0 | 6.4 | 0.00 | 0.00 | 0.00 | 74 | 1010.7 |
| 20260505101419 | 13 | 186 | 0.0 | 6.4 | 0.00 | 0.00 | 0.00 | 74 | 1010.7 |
| 20260505101314 | 13 | 192 | 0.0 | 6.4 | 0.00 | 0.00 | 0.00 | 74 | 1010.7 |
| 20260505101210 | 13 | 192 | 0.0 | 6.4 | 0.00 | 0.00 | 0.00 | 74 | 1010.7 |
| 20260505101105 | 13 | 171 | 0.0 | 6.4 | 0.00 | 0.00 | 0.00 | 74 | 1010.6 |
| 20260505101001 | 13 | 171 | 0.0 | 6.4 | 0.00 | 0.00 | 0.00 | 74 | 1010.6 |
| 20260505100635 | 13 | 202 | 0.0 | 6.4 | 0.00 | 0.00 | 0.00 | 74 | 1010.6 |
| 20260505100531 | 13 | 216 | 0.0 | 6.4 | 0.00 | 0.00 | 0.00 | 74 | 1010.6 |
| 20260505100424 | 13 | 233 | 0.0 | 6.4 | 0.00 | 0.00 | 0.00 | 74 | 1010.6 |
| 20260505100318 | 13 | 155 | 0.0 | 6.4 | 0.00 | 0.00 | 0.00 | 74 | 1010.6 |
| 20260505095953 | 13 | 167 | 0.0 | 4.8 | 0.00 | 0.00 | 0.00 | 74 | 1010.6 |
| 20260505095848 | 13 | 169 | 0.0 | 4.8 | 0.00 | 0.00 | 0.00 | 74 | 1010.6 |
| 20260505095743 | 13 | 169 | 0.0 | 4.8 | 0.00 | 0.00 | 0.00 | 74 | 1010.6 |
| 20260505095637 | 13 | 169 | 0.0 | 4.8 | 0.00 | 0.00 | 0.00 | 74 | 1010.6 |
| 20260505095530 | 13 | 171 | 0.0 | 4.8 | 0.00 | 0.00 | 0.00 | 74 | 1010.6 |
| 20260505095422 | 13 | 135 | 0.0 | 4.8 | 0.00 | 0.00 | 0.00 | 74 | 1010.6 |
| 20260505095317 | 13 | 185 | 0.0 | 3.2 | 0.00 | 0.00 | 0.00 | 74 | 1010.7 |
| 20260505095214 | 13 | 189 | 0.0 | 3.2 | 0.00 | 0.00 | 0.00 | 74 | 1010.6 |
| 20260505095111 | 13 | 223 | 0.0 | 3.2 | 0.00 | 0.00 | 0.00 | 74 | 1010.7 |
| 20260505095008 | 13 | 223 | 0.0 | 3.2 | 0.00 | 0.00 | 0.00 | 74 | 1010.7 |
| 20260505094905 | 13 | 223 | 0.0 | 3.2 | 0.00 | 0.00 | 0.00 | 74 | 1010.7 |
| 20260505094802 | 13 | 223 | 0.0 | 3.2 | 0.00 | 0.00 | 0.00 | 74 | 1010.7 |
| 20260505094658 | 13 | 254 | 0.0 | 3.2 | 0.00 | 0.00 | 0.00 | 74 | 1010.7 |
| 20260505094552 | 13 | 258 | 0.0 | 3.2 | 0.00 | 0.00 | 0.00 | 74 | 1010.7 |
| 20260505094445 | 13 | 142 | 0.0 | 3.2 | 0.00 | 0.00 | 0.00 | 74 | 1010.7 |
| 20260505094337 | 13 | 142 | 0.0 | 3.2 | 0.00 | 0.00 | 0.00 | 74 | 1010.7 |
| 20260505094233 | 13 | 9 | 0.0 | 3.2 | 0.00 | 0.00 | 0.00 | 75 | 1010.7 |
| 20260505094126 | 13 | 240 | 0.0 | 0.0 | 0.00 | 0.00 | 0.00 | 75 | 1010.6 |
| 20260505094019 | 13 | 240 | 0.0 | 1.6 | 0.00 | 0.00 | 0.00 | 75 | 1010.7 |
| 20260505093916 | 13 | 240 | 0.0 | 1.6 | 0.00 | 0.00 | 0.00 | 75 | 1010.6 |
| 20260505093813 | 13 | 150 | 0.0 | 0.0 | 0.00 | 0.00 | 0.00 | 75 | 1010.6 |
| 20260505093710 | 13 | 150 | 0.0 | 3.2 | 0.00 | 0.00 | 0.00 | 74 | 1010.6 |
| 20260505093609 | 13 | 171 | 0.0 | 3.2 | 0.00 | 0.00 | 0.00 | 74 | 1010.6 |
| 20260505093502 | 13 | 96 | 0.0 | 3.2 | 0.00 | 0.00 | 0.00 | 74 | 1010.6 |
| 20260505093141 | 13 | 181 | 0.0 | 3.2 | 0.00 | 0.00 | 0.00 | 74 | 1010.5 |
| 20260505093038 | 13 | 205 | 0.0 | 4.8 | 0.00 | 0.00 | 0.00 | 74 | 1010.6 |
| 20260505092933 | 13 | 202 | 0.0 | 4.8 | 0.00 | 0.00 | 0.00 | 73 | 1010.5 |
| 20260505092825 | 13 | 215 | 0.0 | 4.8 | 0.00 | 0.00 | 0.00 | 74 | 1010.5 |
| 20260505092718 | 13 | 277 | 0.0 | 4.8 | 0.00 | 0.00 | 0.00 | 74 | 1010.5 |
| 20260505092612 | 13 | 242 | 0.0 | 4.8 | 0.00 | 0.00 | 0.00 | 74 | 1010.5 |
| 20260505092245 | 13 | 178 | 0.0 | 4.8 | 0.00 | 0.00 | 0.00 | 74 | 1010.5 |
| 20260505091926 | 13 | 194 | 0.0 | 4.8 | 0.00 | 0.00 | 0.00 | 74 | 1010.5 |
| 20260505091824 | 13 | 91 | 0.0 | 4.8 | 0.00 | 0.00 | 0.00 | 74 | 1010.4 |
| 20260505091722 | 13 | 165 | 0.0 | 4.8 | 0.00 | 0.00 | 0.00 | 74 | 1010.5 |
| 20260505091616 | 13 | 157 | 0.0 | 4.8 | 0.00 | 0.00 | 0.00 | 74 | 1010.4 |
| 20260505091250 | 13 | 157 | 0.0 | 4.8 | 0.00 | 0.00 | 0.00 | 74 | 1010.4 |
| 20260505091146 | 13 | 149 | 0.0 | 4.8 | 0.00 | 0.00 | 0.00 | 74 | 1010.5 |
| 20260505091040 | 13 | 159 | 0.0 | 1.6 | 0.00 | 0.00 | 0.00 | 74 | 1010.5 |
| 20260505090717 | 13 | 273 | 0.0 | 1.6 | 0.00 | 0.00 | 0.00 | 74 | 1010.5 |
| 20260505090608 | 13 | 15 | 0.0 | 1.6 | 0.00 | 0.00 | 0.00 | 74 | 1010.5 |
| 20260505090243 | 13 | 186 | 0.0 | 1.6 | 0.00 | 0.00 | 0.00 | 74 | 1010.4 |
| 20260505090141 | 13 | 196 | 0.0 | 1.6 | 0.00 | 0.00 | 0.00 | 74 | 1010.4 |
| 20260505090034 | 13 | 159 | 0.0 | 1.6 | 0.00 | 0.00 | 0.00 | 74 | 1010.5 |
| 20260505085930 | 13 | 159 | 0.0 | 1.6 | 0.00 | 0.00 | 0.00 | 74 | 1010.4 |
| 20260505085827 | 13 | 159 | 0.0 | 1.6 | 0.00 | 0.00 | 0.00 | 74 | 1010.4 |
| 20260505085720 | 13 | 121 | 0.0 | 1.6 | 0.00 | 0.00 | 0.00 | 74 | 1010.4 |
| 20260505085617 | 13 | 184 | 0.0 | 1.6 | 0.00 | 0.00 | 0.00 | 74 | 1010.4 |
| 20260505085509 | 13 | 219 | 0.0 | 1.6 | 0.00 | 0.00 | 0.00 | 74 | 1010.4 |
| 20260505085402 | 13 | 200 | 0.0 | 1.6 | 0.00 | 0.00 | 0.00 | 74 | 1010.4 |
| 20260505085258 | 13 | 207 | 0.0 | 1.6 | 0.00 | 0.00 | 0.00 | 74 | 1010.4 |
| 20260505085153 | 13 | 201 | 0.0 | 1.6 | 0.00 | 0.00 | 0.00 | 74 | 1010.4 |
| 20260505085051 | 13 | 196 | 0.0 | 1.6 | 0.00 | 0.00 | 0.00 | 74 | 1010.4 |
| 20260505084949 | 13 | 196 | 0.0 | 1.6 | 0.00 | 0.00 | 0.00 | 75 | 1010.4 |
| 20260505084846 | 13 | 138 | 0.0 | 1.6 | 0.00 | 0.00 | 0.00 | 75 | 1010.4 |
| 20260505084527 | 13 | 169 | 0.0 | 3.2 | 0.00 | 0.00 | 0.00 | 75 | 1010.4 |
| 20260505084423 | 13 | 141 | 0.0 | 3.2 | 0.00 | 0.00 | 0.00 | 75 | 1010.4 |
| 20260505084319 | 13 | 141 | 0.0 | 3.2 | 0.00 | 0.00 | 0.00 | 75 | 1010.4 |
| 20260505084214 | 13 | 183 | 0.0 | 3.2 | 0.00 | 0.00 | 0.00 | 75 | 1010.4 |
| 20260505084112 | 13 | 191 | 0.0 | 3.2 | 0.00 | 0.00 | 0.00 | 75 | 1010.4 |
| 20260505084005 | 13 | 191 | 0.0 | 3.2 | 0.00 | 0.00 | 0.00 | 75 | 1010.4 |
| 20260505083902 | 13 | 208 | 0.0 | 3.2 | 0.00 | 0.00 | 0.00 | 75 | 1010.3 |
| 20260505083539 | 13 | 186 | 0.0 | 8.0 | 0.00 | 0.00 | 0.00 | 74 | 1010.3 |
| 20260505083435 | 13 | 205 | 0.0 | 8.0 | 0.00 | 0.00 | 0.00 | 74 | 1010.3 |
| 20260505083328 | 13 | 155 | 0.0 | 8.0 | 0.00 | 0.00 | 0.00 | 74 | 1010.3 |
| 20260505083000 | 13 | 229 | 0.0 | 8.0 | 0.00 | 0.00 | 0.00 | 74 | 1010.4 |
| 20260505082854 | 13 | 247 | 0.0 | 8.0 | 0.00 | 0.00 | 0.00 | 74 | 1010.3 |
| 20260505082748 | 13 | 312 | 0.0 | 8.0 | 0.00 | 0.00 | 0.00 | 74 | 1010.4 |
| 20260505082642 | 13 | 252 | 0.0 | 11.3 | 0.00 | 0.00 | 0.00 | 75 | 1010.3 |
| 20260505082315 | 13 | 205 | 0.0 | 11.3 | 0.00 | 0.00 | 0.00 | 75 | 1010.3 |
| 20260505082209 | 13 | 205 | 0.0 | 11.3 | 0.00 | 0.00 | 0.00 | 76 | 1010.3 |
| 20260505082104 | 13 | 205 | 0.0 | 11.3 | 0.00 | 0.00 | 0.00 | 76 | 1010.3 |
| 20260505081957 | 13 | 205 | 0.0 | 11.3 | 0.00 | 0.00 | 0.00 | 76 | 1010.3 |
| 20260505081854 | 13 | 205 | 0.0 | 11.3 | 0.00 | 0.00 | 0.00 | 76 | 1010.3 |
| 20260505081747 | 13 | 113 | 0.0 | 11.3 | 0.00 | 0.00 | 0.00 | 76 | 1010.3 |
| 20260505081642 | 13 | 126 | 0.0 | 11.3 | 0.00 | 0.00 | 0.00 | 76 | 1010.3 |
| 20260505081538 | 13 | 183 | 0.0 | 11.3 | 0.00 | 0.00 | 0.00 | 75 | 1010.3 |
| 20260505081433 | 13 | 160 | 0.0 | 11.3 | 0.00 | 0.00 | 0.00 | 75 | 1010.3 |
| 20260505081107 | 13 | 181 | 0.0 | 11.3 | 0.00 | 0.00 | 0.00 | 75 | 1010.2 |
| 20260505080520 | 13 | 163 | 0.0 | 8.0 | 0.00 | 0.00 | 0.00 | 76 | 1010.1 |
| 20260505080417 | 13 | 198 | 0.0 | 8.0 | 0.00 | 0.00 | 0.00 | 76 | 1010.2 |
| 20260505080313 | 13 | 171 | 0.0 | 8.0 | 0.00 | 0.00 | 0.00 | 76 | 1010.2 |
| 20260505080211 | 13 | 302 | 0.0 | 6.4 | 0.00 | 0.00 | 0.00 | 76 | 1010.1 |
| 20260505080108 | 13 | 215 | 0.0 | 6.4 | 0.00 | 0.00 | 0.00 | 76 | 1010.1 |
| 20260505080006 | 13 | 226 | 0.0 | 6.4 | 0.00 | 0.00 | 0.00 | 76 | 1010.1 |
| 20260505075859 | 13 | 211 | 0.0 | 6.4 | 0.00 | 0.00 | 0.00 | 77 | 1010.1 |
| 20260505075757 | 13 | 267 | 0.0 | 6.4 | 0.00 | 0.00 | 0.00 | 77 | 1010.1 |
| 20260505075653 | 13 | 267 | 0.0 | 6.4 | 0.00 | 0.00 | 0.00 | 77 | 1010.0 |
| 20260505075547 | 13 | 138 | 0.0 | 4.8 | 0.00 | 0.00 | 0.00 | 77 | 1010.1 |
| 20260505075440 | 13 | 107 | 0.0 | 4.8 | 0.00 | 0.00 | 0.00 | 77 | 1010.1 |
| 20260505074855 | 13 | 258 | 0.0 | 4.8 | 0.00 | 0.00 | 0.00 | 77 | 1010.1 |
| 20260505074752 | 13 | 228 | 0.0 | 0.0 | 0.00 | 0.00 | 0.00 | 77 | 1010.1 |
| 20260505074645 | 13 | 228 | 0.0 | 1.6 | 0.00 | 0.00 | 0.00 | 77 | 1010.1 |
| 20260505074542 | 13 | 228 | 0.0 | 1.6 | 0.00 | 0.00 | 0.00 | 77 | 1010.1 |
| 20260505074440 | 13 | 194 | 0.0 | 1.6 | 0.00 | 0.00 | 0.00 | 77 | 1010.1 |
| 20260505074332 | 13 | 162 | 0.0 | 1.6 | 0.00 | 0.00 | 0.00 | 78 | 1010.0 |
| 20260505074228 | 13 | 162 | 0.0 | 1.6 | 0.00 | 0.00 | 0.00 | 78 | 1010.0 |
| 20260505073646 | 13 | 118 | 0.0 | 4.8 | 0.00 | 0.00 | 0.00 | 78 | 1010.0 |
| 20260505073321 | 13 | 173 | 0.0 | 4.8 | 0.00 | 0.00 | 0.00 | 78 | 1010.0 |
| 20260505072957 | 13 | 180 | 0.0 | 4.8 | 0.00 | 0.00 | 0.00 | 79 | 1010.0 |
| 20260505072850 | 13 | 132 | 0.0 | 4.8 | 0.00 | 0.00 | 0.00 | 79 | 1010.0 |
| 20260505072745 | 13 | 132 | 0.0 | 4.8 | 0.00 | 0.00 | 0.00 | 79 | 1010.0 |
| 20260505072643 | 13 | 38 | 0.0 | 4.8 | 0.00 | 0.00 | 0.00 | 79 | 1010.0 |
| 20260505072537 | 13 | 168 | 0.0 | 4.8 | 0.00 | 0.00 | 0.00 | 79 | 1010.0 |
| 20260505072434 | 13 | 108 | 0.0 | 4.8 | 0.00 | 0.00 | 0.00 | 79 | 1010.0 |
| 20260505072329 | 13 | 112 | 0.0 | 4.8 | 0.00 | 0.00 | 0.00 | 78 | 1009.9 |
| 20260505072225 | 13 | 191 | 0.0 | 4.8 | 0.00 | 0.00 | 0.00 | 79 | 1010.0 |
| 20260505071900 | 13 | 81 | 0.0 | 3.2 | 0.00 | 0.00 | 0.00 | 78 | 1009.9 |
| 20260505071756 | 13 | 261 | 0.0 | 3.2 | 0.00 | 0.00 | 0.00 | 78 | 1009.9 |
| 20260505071648 | 13 | 288 | 0.0 | 3.2 | 0.00 | 0.00 | 0.00 | 78 | 1009.9 |
| 20260505071320 | 13 | 100 | 0.0 | 0.0 | 0.00 | 0.00 | 0.00 | 78 | 1009.9 |
| 20260505070953 | 13 | 100 | 0.0 | 0.0 | 0.00 | 0.00 | 0.00 | 78 | 1009.8 |
| 20260505070850 | 13 | 100 | 0.0 | 0.0 | 0.00 | 0.00 | 0.00 | 78 | 1009.9 |
| 20260505070748 | 13 | 229 | 0.0 | 0.0 | 0.00 | 0.00 | 0.00 | 78 | 1009.8 |
| 20260505070645 | 13 | 229 | 0.0 | 1.6 | 0.00 | 0.00 | 0.00 | 79 | 1009.8 |
| 20260505070054 | 13 | 154 | 0.0 | 4.8 | 0.00 | 0.00 | 0.00 | 79 | 1009.9 |
| 20260505065949 | 13 | 154 | 0.0 | 4.8 | 0.00 | 0.00 | 0.00 | 79 | 1009.8 |
| 20260505065841 | 13 | 198 | 0.0 | 0.0 | 0.00 | 0.00 | 0.00 | 79 | 1009.9 |
| 20260505065734 | 13 | 198 | 0.0 | 0.0 | 0.00 | 0.00 | 0.00 | 79 | 1009.9 |
| 20260505065626 | 13 | 198 | 0.0 | 0.0 | 0.00 | 0.00 | 0.00 | 79 | 1009.8 |
| 20260505065259 | 13 | 175 | 0.0 | 3.2 | 0.00 | 0.00 | 0.00 | 79 | 1009.9 |
| 20260505065153 | 13 | 175 | 0.0 | 3.2 | 0.00 | 0.00 | 0.00 | 78 | 1009.9 |
| 20260505065050 | 13 | 190 | 0.0 | 3.2 | 0.00 | 0.00 | 0.00 | 78 | 1009.9 |
| 20260505064945 | 13 | 190 | 0.0 | 3.2 | 0.00 | 0.00 | 0.00 | 78 | 1009.8 |
| 20260505064839 | 13 | 190 | 0.0 | 3.2 | 0.00 | 0.00 | 0.00 | 78 | 1009.8 |
| 20260505064733 | 13 | 190 | 0.0 | 1.6 | 0.00 | 0.00 | 0.00 | 78 | 1009.8 |
| 20260505064626 | 13 | 190 | 0.0 | 1.6 | 0.00 | 0.00 | 0.00 | 78 | 1009.9 |
| 20260505064524 | 13 | 190 | 0.0 | 1.6 | 0.00 | 0.00 | 0.00 | 78 | 1009.9 |
| 20260505064420 | 13 | 190 | 0.0 | 1.6 | 0.00 | 0.00 | 0.00 | 78 | 1009.9 |
| 20260505064315 | 13 | 188 | 0.0 | 1.6 | 0.00 | 0.00 | 0.00 | 78 | 1009.9 |
| 20260505064213 | 13 | 180 | 0.0 | 1.6 | 0.00 | 0.00 | 0.00 | 78 | 1009.8 |
| 20260505064110 | 13 | 181 | 0.0 | 1.6 | 0.00 | 0.00 | 0.00 | 78 | 1009.8 |
| 20260505064008 | 13 | 218 | 0.0 | 1.6 | 0.00 | 0.00 | 0.00 | 78 | 1009.8 |
| 20260505063639 | 13 | 238 | 0.0 | 0.0 | 0.00 | 0.00 | 0.00 | 78 | 1009.8 |
| 20260505063536 | 13 | 238 | 0.0 | 1.6 | 0.00 | 0.00 | 0.00 | 78 | 1009.8 |
| 20260505063432 | 13 | 232 | 0.0 | 1.6 | 0.00 | 0.00 | 0.00 | 78 | 1009.8 |
| 20260505063329 | 13 | 233 | 0.0 | 1.6 | 0.00 | 0.00 | 0.00 | 78 | 1009.8 |
| 20260505063224 | 13 | 233 | 0.0 | 1.6 | 0.00 | 0.00 | 0.00 | 78 | 1009.8 |
| 20260505063120 | 13 | 207 | 0.0 | 1.6 | 0.00 | 0.00 | 0.00 | 78 | 1009.8 |
| 20260505063013 | 13 | 196 | 0.0 | 1.6 | 0.00 | 0.00 | 0.00 | 78 | 1009.8 |
| 20260505062909 | 13 | 196 | 0.0 | 1.6 | 0.00 | 0.00 | 0.00 | 78 | 1009.9 |
| 20260505062804 | 13 | 194 | 0.0 | 0.0 | 0.00 | 0.00 | 0.00 | 78 | 1009.8 |
| 20260505062659 | 13 | 194 | 0.0 | 0.0 | 0.00 | 0.00 | 0.00 | 77 | 1009.8 |
| 20260505062555 | 13 | 194 | 0.0 | 0.0 | 0.00 | 0.00 | 0.00 | 77 | 1009.8 |
| 20260505062451 | 13 | 194 | 0.0 | 0.0 | 0.00 | 0.00 | 0.00 | 77 | 1009.8 |
| 20260505062348 | 13 | 194 | 0.0 | 0.0 | 0.00 | 0.00 | 0.00 | 77 | 1009.8 |
| 20260505062241 | 13 | 194 | 0.0 | 0.0 | 0.00 | 0.00 | 0.00 | 77 | 1009.7 |
| 20260505062135 | 13 | 194 | 0.0 | 0.0 | 0.00 | 0.00 | 0.00 | 77 | 1009.8 |
| 20260505062029 | 13 | 194 | 0.0 | 0.0 | 0.00 | 0.00 | 0.00 | 77 | 1009.8 |
| 20260505061923 | 13 | 194 | 0.0 | 0.0 | 0.00 | 0.00 | 0.00 | 77 | 1009.8 |
| 20260505061558 | 13 | 194 | 0.0 | 0.0 | 0.00 | 0.00 | 0.00 | 76 | 1009.8 |
| 20260505061455 | 13 | 194 | 0.0 | 0.0 | 0.00 | 0.00 | 0.00 | 76 | 1009.8 |
| 20260505061351 | 13 | 194 | 0.0 | 3.2 | 0.00 | 0.00 | 0.00 | 76 | 1009.8 |
| 20260505061246 | 13 | 194 | 0.0 | 3.2 | 0.00 | 0.00 | 0.00 | 76 | 1009.8 |
| 20260505061143 | 13 | 232 | 0.0 | 1.6 | 0.00 | 0.00 | 0.00 | 76 | 1009.8 |
| 20260505061041 | 13 | 232 | 0.0 | 1.6 | 0.00 | 0.00 | 0.00 | 76 | 1009.8 |
| 20260505060935 | 13 | 232 | 0.0 | 1.6 | 0.00 | 0.00 | 0.00 | 75 | 1009.8 |
| 20260505060831 | 13 | 232 | 0.0 | 1.6 | 0.00 | 0.00 | 0.00 | 76 | 1009.8 |
| 20260505060727 | 13 | 132 | 0.0 | 0.0 | 0.00 | 0.00 | 0.00 | 75 | 1009.9 |
| 20260505060620 | 13 | 51 | 0.0 | 0.0 | 0.00 | 0.00 | 0.00 | 75 | 1009.9 |
| 20260505060513 | 13 | 51 | 0.0 | 0.0 | 0.00 | 0.00 | 0.00 | 75 | 1009.9 |
| 20260505060405 | 13 | 51 | 0.0 | 0.0 | 0.00 | 0.00 | 0.00 | 75 | 1009.9 |
| 20260505060300 | 13 | 51 | 0.0 | 0.0 | 0.00 | 0.00 | 0.00 | 75 | 1009.9 |
| 20260505060154 | 13 | 51 | 0.0 | 0.0 | 0.00 | 0.00 | 0.00 | 75 | 1009.9 |
| 20260505060046 | 13 | 51 | 0.0 | 0.0 | 0.00 | 0.00 | 0.00 | 75 | 1009.9 |
| 20260505055943 | 13 | 51 | 0.0 | 0.0 | 0.00 | 0.00 | 0.00 | 75 | 1009.9 |
| 20260505055618 | 13 | 51 | 0.0 | 0.0 | 0.00 | 0.00 | 0.00 | 75 | 1009.9 |
| 20260505055514 | 13 | 51 | 0.0 | 0.0 | 0.00 | 0.00 | 0.00 | 75 | 1009.9 |
| 20260505055410 | 13 | 51 | 0.0 | 0.0 | 0.00 | 0.00 | 0.00 | 75 | 1009.8 |
| 20260505055304 | 13 | 51 | 0.0 | 0.0 | 0.00 | 0.00 | 0.00 | 75 | 1009.8 |
| 20260505055156 | 13 | 51 | 0.0 | 0.0 | 0.00 | 0.00 | 0.00 | 75 | 1009.9 |
| 20260505055047 | 13 | 51 | 0.0 | 0.0 | 0.00 | 0.00 | 0.00 | 75 | 1009.8 |
| 20260505054945 | 13 | 51 | 0.0 | 0.0 | 0.00 | 0.00 | 0.00 | 75 | 1009.9 |
| 20260505054843 | 13 | 51 | 0.0 | 0.0 | 0.00 | 0.00 | 0.00 | 75 | 1009.9 |
| 20260505054741 | 13 | 51 | 0.0 | 0.0 | 0.00 | 0.00 | 0.00 | 75 | 1009.8 |
| 20260505054636 | 13 | 51 | 0.0 | 0.0 | 0.00 | 0.00 | 0.00 | 75 | 1009.9 |
| 20260505054533 | 13 | 51 | 0.0 | 0.0 | 0.00 | 0.00 | 0.00 | 75 | 1009.9 |
| 20260505054427 | 13 | 51 | 0.0 | 0.0 | 0.00 | 0.00 | 0.00 | 74 | 1009.8 |
| 20260505054320 | 13 | 51 | 0.0 | 0.0 | 0.00 | 0.00 | 0.00 | 74 | 1009.9 |
| 20260505054213 | 14 | 51 | 0.0 | 0.0 | 0.00 | 0.00 | 0.00 | 74 | 1009.9 |
| 20260505054109 | 14 | 51 | 0.0 | 0.0 | 0.00 | 0.00 | 0.00 | 74 | 1009.9 |
| 20260505053746 | 14 | 51 | 0.0 | 0.0 | 0.00 | 0.00 | 0.00 | 73 | 1009.8 |
| 20260505053639 | 14 | 51 | 0.0 | 0.0 | 0.00 | 0.00 | 0.00 | 74 | 1009.9 |
| 20260505053535 | 14 | 51 | 0.0 | 0.0 | 0.00 | 0.00 | 0.00 | 74 | 1009.9 |
| 20260505053428 | 14 | 51 | 0.0 | 0.0 | 0.00 | 0.00 | 0.00 | 73 | 1009.9 |
| 20260505053321 | 14 | 51 | 0.0 | 0.0 | 0.00 | 0.00 | 0.00 | 73 | 1009.9 |
| 20260505035943 | 16 | 51 | 0.0 | 0.0 | 0.00 | 0.00 | 0.00 | 65 | 1010.0 |
| 20260505035839 | 16 | 51 | 0.0 | 0.0 | 0.00 | 0.00 | 0.00 | 65 | 1009.9 |
| 20260505035731 | 16 | 51 | 0.0 | 0.0 | 0.00 | 0.00 | 0.00 | 65 | 1009.9 |
| 20260505035404 | 16 | 51 | 0.0 | 0.0 | 0.00 | 0.00 | 0.00 | 65 | 1010.0 |
| 20260505035257 | 16 | 51 | 0.0 | 0.0 | 0.00 | 0.00 | 0.00 | 65 | 1009.9 |
| 20260505035155 | 16 | 51 | 0.0 | 0.0 | 0.00 | 0.00 | 0.00 | 64 | 1010.0 |
| 20260505035052 | 16 | 51 | 0.0 | 0.0 | 0.00 | 0.00 | 0.00 | 65 | 1010.0 |
| 20260505034723 | 16 | 51 | 0.0 | 0.0 | 0.00 | 0.00 | 0.00 | 64 | 1010.0 |
| 20260505034619 | 16 | 51 | 0.0 | 0.0 | 0.00 | 0.00 | 0.00 | 64 | 1010.0 |
| 20260505034517 | 16 | 51 | 0.0 | 0.0 | 0.00 | 0.00 | 0.00 | 64 | 1010.0 |
| 20260505034414 | 16 | 51 | 0.0 | 0.0 | 0.00 | 0.00 | 0.00 | 64 | 1010.0 |
| 20260505034309 | 16 | 51 | 0.0 | 0.0 | 0.00 | 0.00 | 0.00 | 64 | 1010.1 |
| 20260505034203 | 16 | 51 | 0.0 | 0.0 | 0.00 | 0.00 | 0.00 | 64 | 1010.1 |
| 20260505034056 | 16 | 130 | 0.0 | 0.0 | 0.00 | 0.00 | 0.00 | 64 | 1010.1 |
| 20260505033949 | 16 | 130 | 0.0 | 0.0 | 0.00 | 0.00 | 0.00 | 64 | 1010.1 |
| 20260505033846 | 16 | 130 | 0.0 | 0.0 | 0.00 | 0.00 | 0.00 | 64 | 1010.2 |
| 20260505033303 | 17 | 130 | 0.0 | 0.0 | 0.00 | 0.00 | 0.00 | 64 | 1010.2 |
| 20260505033157 | 17 | 130 | 0.0 | 0.0 | 0.00 | 0.00 | 0.00 | 64 | 1010.2 |
| 20260505032832 | 17 | 130 | 0.0 | 0.0 | 0.00 | 0.00 | 0.00 | 63 | 1010.1 |
| 20260505032728 | 17 | 130 | 0.0 | 0.0 | 0.00 | 0.00 | 0.00 | 63 | 1010.1 |
| 20260505032623 | 17 | 130 | 0.0 | 0.0 | 0.00 | 0.00 | 0.00 | 63 | 1010.0 |
| 20260505032516 | 17 | 130 | 0.0 | 0.0 | 0.00 | 0.00 | 0.00 | 63 | 1010.1 |
| 20260505032412 | 17 | 130 | 0.0 | 0.0 | 0.00 | 0.00 | 0.00 | 63 | 1010.1 |
| 20260505032308 | 17 | 130 | 0.0 | 0.0 | 0.00 | 0.00 | 0.00 | 63 | 1010.1 |
| 20260505031941 | 17 | 130 | 0.0 | 0.0 | 0.00 | 0.00 | 0.00 | 63 | 1010.2 |
| 20260505031839 | 17 | 130 | 0.0 | 0.0 | 0.00 | 0.00 | 0.00 | 63 | 1010.1 |
| 20260505031735 | 17 | 130 | 0.0 | 0.0 | 0.00 | 0.00 | 0.00 | 62 | 1010.2 |
| 20260505031630 | 17 | 130 | 0.0 | 0.0 | 0.00 | 0.00 | 0.00 | 62 | 1010.1 |
| 20260505031528 | 17 | 130 | 0.0 | 0.0 | 0.00 | 0.00 | 0.00 | 62 | 1010.2 |
| 20260505031424 | 17 | 130 | 0.0 | 0.0 | 0.00 | 0.00 | 0.00 | 62 | 1010.2 |
| 20260505030835 | 17 | 130 | 0.0 | 0.0 | 0.00 | 0.00 | 0.00 | 61 | 1010.2 |
| 20260505030728 | 17 | 130 | 0.0 | 0.0 | 0.00 | 0.00 | 0.00 | 61 | 1010.2 |
| 20260505030405 | 17 | 130 | 0.0 | 0.0 | 0.00 | 0.00 | 0.00 | 61 | 1010.1 |
| 20260505030040 | 17 | 130 | 0.0 | 0.0 | 0.00 | 0.00 | 0.00 | 61 | 1010.1 |
| 20260505025935 | 17 | 130 | 0.0 | 0.0 | 0.00 | 0.00 | 0.00 | 61 | 1010.1 |
| 20260505025828 | 17 | 130 | 0.0 | 0.0 | 0.00 | 0.00 | 0.00 | 61 | 1010.1 |
| 20260505025724 | 17 | 292 | 0.0 | 0.0 | 0.00 | 0.00 | 0.00 | 61 | 1010.1 |
| 20260505025620 | 17 | 292 | 0.0 | 0.0 | 0.00 | 0.00 | 0.00 | 61 | 1010.1 |
| 20260505025516 | 17 | 278 | 0.0 | 0.0 | 0.00 | 0.00 | 0.00 | 61 | 1010.2 |
| 20260505025150 | 17 | 278 | 0.0 | 0.0 | 0.00 | 0.00 | 0.00 | 60 | 1010.1 |
| 20260505025044 | 17 | 278 | 0.0 | 0.0 | 0.00 | 0.00 | 0.00 | 60 | 1010.1 |
| 20260505024942 | 17 | 257 | 0.0 | 0.0 | 0.00 | 0.00 | 0.00 | 60 | 1010.1 |
| 20260505024836 | 17 | 5 | 0.0 | 0.0 | 0.00 | 0.00 | 0.00 | 60 | 1010.1 |
| 20260505024732 | 17 | 5 | 0.0 | 0.0 | 0.00 | 0.00 | 0.00 | 59 | 1010.1 |
| 20260505024630 | 18 | 5 | 0.0 | 0.0 | 0.00 | 0.00 | 0.00 | 59 | 1010.1 |
| 20260505024525 | 18 | 5 | 0.0 | 0.0 | 0.00 | 0.00 | 0.00 | 59 | 1010.1 |
| 20260505024420 | 18 | 5 | 0.0 | 0.0 | 0.00 | 0.00 | 0.00 | 59 | 1010.1 |
| 20260505024316 | 18 | 5 | 0.0 | 0.0 | 0.00 | 0.00 | 0.00 | 58 | 1010.1 |
| 20260505024211 | 18 | 5 | 0.0 | 0.0 | 0.00 | 0.00 | 0.00 | 58 | 1010.1 |
| 20260505024104 | 18 | 5 | 0.0 | 0.0 | 0.00 | 0.00 | 0.00 | 58 | 1010.2 |
| 20260505023957 | 18 | 5 | 0.0 | 0.0 | 0.00 | 0.00 | 0.00 | 58 | 1010.1 |
| 20260505023854 | 18 | 5 | 0.0 | 0.0 | 0.00 | 0.00 | 0.00 | 58 | 1010.1 |
| 20260505023751 | 18 | 273 | 0.0 | 0.0 | 0.00 | 0.00 | 0.00 | 58 | 1010.1 |
| 20260505023647 | 18 | 273 | 0.0 | 0.0 | 0.00 | 0.00 | 0.00 | 57 | 1010.1 |
| 20260505023320 | 18 | 273 | 0.0 | 0.0 | 0.00 | 0.00 | 0.00 | 58 | 1010.1 |
| 20260505022956 | 18 | 101 | 0.0 | 0.0 | 0.00 | 0.00 | 0.00 | 57 | 1010.0 |
| 20260505022848 | 18 | 101 | 0.0 | 0.0 | 0.00 | 0.00 | 0.00 | 57 | 1010.0 |
| 20260505022742 | 18 | 101 | 0.0 | 0.0 | 0.00 | 0.00 | 0.00 | 57 | 1010.0 |
| 20260505022637 | 18 | 101 | 0.0 | 0.0 | 0.00 | 0.00 | 0.00 | 57 | 1010.0 |
| 20260505022529 | 18 | 101 | 0.0 | 0.0 | 0.00 | 0.00 | 0.00 | 57 | 1010.0 |
| 20260505022426 | 18 | 101 | 0.0 | 0.0 | 0.00 | 0.00 | 0.00 | 57 | 1010.0 |
| 20260505022058 | 18 | 146 | 0.0 | 0.0 | 0.00 | 0.00 | 0.00 | 56 | 1010.0 |
| 20260505021954 | 18 | 146 | 0.0 | 0.0 | 0.00 | 0.00 | 0.00 | 56 | 1010.0 |
| 20260505021851 | 18 | 146 | 0.0 | 0.0 | 0.00 | 0.00 | 0.00 | 56 | 1010.0 |
| 20260505021744 | 18 | 146 | 0.0 | 0.0 | 0.00 | 0.00 | 0.00 | 56 | 1010.0 |
| 20260505021639 | 18 | 146 | 0.0 | 0.0 | 0.00 | 0.00 | 0.00 | 56 | 1010.0 |
| 20260505021533 | 18 | 146 | 0.0 | 0.0 | 0.00 | 0.00 | 0.00 | 56 | 1010.0 |
| 20260505021429 | 18 | 146 | 0.0 | 0.0 | 0.00 | 0.00 | 0.00 | 56 | 1010.0 |
| 20260505021325 | 18 | 146 | 0.0 | 0.0 | 0.00 | 0.00 | 0.00 | 56 | 1010.0 |
| 20260505021222 | 18 | 146 | 0.0 | 0.0 | 0.00 | 0.00 | 0.00 | 56 | 1009.9 |
| 20260505021114 | 18 | 146 | 0.0 | 0.0 | 0.00 | 0.00 | 0.00 | 56 | 1010.0 |
| 20260505021008 | 18 | 146 | 0.0 | 0.0 | 0.00 | 0.00 | 0.00 | 56 | 1010.0 |
| 20260505020905 | 18 | 146 | 0.0 | 0.0 | 0.00 | 0.00 | 0.00 | 56 | 1010.0 |
| 20260505020543 | 18 | 146 | 0.0 | 0.0 | 0.00 | 0.00 | 0.00 | 56 | 1010.0 |
| 20260505020440 | 18 | 146 | 0.0 | 0.0 | 0.00 | 0.00 | 0.00 | 56 | 1010.0 |
| 20260505020337 | 18 | 146 | 0.0 | 0.0 | 0.00 | 0.00 | 0.00 | 56 | 1010.0 |
| 20260505020235 | 18 | 146 | 0.0 | 0.0 | 0.00 | 0.00 | 0.00 | 56 | 1010.0 |
| 20260505020132 | 18 | 146 | 0.0 | 0.0 | 0.00 | 0.00 | 0.00 | 56 | 1010.0 |
| 20260505020029 | 18 | 146 | 0.0 | 0.0 | 0.00 | 0.00 | 0.00 | 56 | 1010.0 |
| 20260505015707 | 18 | 146 | 0.0 | 0.0 | 0.00 | 0.00 | 0.00 | 56 | 1009.9 |
| 20260505015604 | 18 | 137 | 0.0 | 0.0 | 0.00 | 0.00 | 0.00 | 55 | 1009.9 |
| 20260505015458 | 18 | 137 | 0.0 | 0.0 | 0.00 | 0.00 | 0.00 | 55 | 1009.9 |
| 20260505015138 | 18 | 137 | 0.0 | 0.0 | 0.00 | 0.00 | 0.00 | 55 | 1009.8 |
| 20260505015032 | 18 | 137 | 0.0 | 3.2 | 0.00 | 0.00 | 0.00 | 55 | 1009.8 |
| 20260505014925 | 18 | 35 | 0.0 | 3.2 | 0.00 | 0.00 | 0.00 | 55 | 1009.8 |
| 20260505014822 | 18 | 225 | 0.0 | 3.2 | 0.00 | 0.00 | 0.00 | 55 | 1009.8 |
| 20260505014719 | 18 | 267 | 0.0 | 3.2 | 0.00 | 0.00 | 0.00 | 55 | 1009.9 |
| 20260505014612 | 18 | 355 | 0.0 | 3.2 | 0.00 | 0.00 | 0.00 | 55 | 1009.8 |
| 20260505014506 | 18 | 355 | 0.0 | 3.2 | 0.00 | 0.00 | 0.00 | 55 | 1009.9 |
| 20260505014139 | 18 | 17 | 0.0 | 3.2 | 0.00 | 0.00 | 0.00 | 54 | 1009.6 |
| 20260505014035 | 18 | 17 | 0.0 | 3.2 | 0.00 | 0.00 | 0.00 | 55 | 1009.6 |
| 20260505013933 | 18 | 303 | 0.0 | 3.2 | 0.00 | 0.00 | 0.00 | 55 | 1009.7 |
| 20260505013825 | 18 | 303 | 0.0 | 3.2 | 0.00 | 0.00 | 0.00 | 54 | 1009.7 |
| 20260505013718 | 19 | 292 | 0.0 | 3.2 | 0.00 | 0.00 | 0.00 | 55 | 1009.8 |
| 20260505013613 | 19 | 181 | 0.0 | 3.2 | 0.00 | 0.00 | 0.00 | 54 | 1009.8 |
| 20260505013511 | 19 | 202 | 0.0 | 3.2 | 0.00 | 0.00 | 0.00 | 54 | 1009.8 |
| 20260505013407 | 19 | 44 | 0.0 | 0.0 | 0.00 | 0.00 | 0.00 | 54 | 1009.7 |
| 20260505013044 | 19 | 119 | 0.0 | 3.2 | 0.00 | 0.00 | 0.00 | 54 | 1009.6 |
| 20260505012942 | 19 | 175 | 0.0 | 3.2 | 0.00 | 0.00 | 0.00 | 53 | 1009.6 |
| 20260505012839 | 19 | 100 | 0.0 | 3.2 | 0.00 | 0.00 | 0.00 | 53 | 1009.6 |
| 20260505012731 | 19 | 250 | 0.0 | 3.2 | 0.00 | 0.00 | 0.00 | 54 | 1009.7 |
| 20260505012628 | 19 | 273 | 0.0 | 3.2 | 0.00 | 0.00 | 0.00 | 54 | 1009.6 |
| 20260505012522 | 19 | 273 | 0.0 | 3.2 | 0.00 | 0.00 | 0.00 | 54 | 1009.7 |
| 20260505012420 | 19 | 216 | 0.0 | 1.6 | 0.00 | 0.00 | 0.00 | 54 | 1009.7 |
| 20260505012317 | 19 | 171 | 0.0 | 1.6 | 0.00 | 0.00 | 0.00 | 54 | 1009.7 |
| 20260505012214 | 19 | 171 | 0.0 | 1.6 | 0.00 | 0.00 | 0.00 | 54 | 1009.7 |
| 20260505012111 | 19 | 136 | 0.0 | 1.6 | 0.00 | 0.00 | 0.00 | 54 | 1009.6 |
| 20260505012008 | 19 | 107 | 0.0 | 1.6 | 0.00 | 0.00 | 0.00 | 53 | 1009.5 |
| 20260505011645 | 20 | 140 | 0.0 | 0.0 | 0.00 | 0.00 | 0.00 | 52 | 1009.5 |
| 20260505011538 | 20 | 105 | 0.0 | 0.0 | 0.00 | 0.00 | 0.00 | 52 | 1009.5 |
| 20260505011434 | 20 | 138 | 0.0 | 0.0 | 0.00 | 0.00 | 0.00 | 52 | 1009.5 |
| 20260505011326 | 20 | 138 | 0.0 | 0.0 | 0.00 | 0.00 | 0.00 | 52 | 1009.5 |
| 20260505011218 | 20 | 138 | 0.0 | 4.8 | 0.00 | 0.00 | 0.00 | 52 | 1009.5 |
| 20260505011111 | 20 | 138 | 0.0 | 4.8 | 0.00 | 0.00 | 0.00 | 52 | 1009.5 |
| 20260505011005 | 20 | 101 | 0.0 | 3.2 | 0.00 | 0.00 | 0.00 | 52 | 1009.5 |
| 20260505010900 | 20 | 72 | 0.0 | 3.2 | 0.00 | 0.00 | 0.00 | 51 | 1009.5 |
| 20260505010753 | 20 | 42 | 0.0 | 1.6 | 0.00 | 0.00 | 0.00 | 51 | 1009.4 |
| 20260505010651 | 20 | 74 | 0.0 | 1.6 | 0.00 | 0.00 | 0.00 | 51 | 1009.4 |
| 20260505010544 | 20 | 204 | 0.0 | 1.6 | 0.00 | 0.00 | 0.00 | 51 | 1009.4 |
| 20260505005956 | 20 | 344 | 0.0 | 0.0 | 0.00 | 0.00 | 0.00 | 50 | 1009.3 |
| 20260505005851 | 20 | 344 | 0.0 | 0.0 | 0.00 | 0.00 | 0.00 | 50 | 1009.2 |
| 20260505005744 | 20 | 344 | 0.0 | 0.0 | 0.00 | 0.00 | 0.00 | 49 | 1009.2 |
| 20260505005637 | 20 | 344 | 0.0 | 0.0 | 0.00 | 0.00 | 0.00 | 50 | 1009.3 |
| 20260505005535 | 20 | 344 | 0.0 | 0.0 | 0.00 | 0.00 | 0.00 | 50 | 1009.2 |
| 20260505005432 | 20 | 344 | 0.0 | 1.6 | 0.00 | 0.00 | 0.00 | 50 | 1009.2 |
| 20260505005327 | 20 | 344 | 0.0 | 1.6 | 0.00 | 0.00 | 0.00 | 50 | 1009.2 |
| 20260505005224 | 20 | 344 | 0.0 | 3.2 | 0.00 | 0.00 | 0.00 | 50 | 1009.3 |
| 20260505005118 | 20 | 344 | 0.0 | 3.2 | 0.00 | 0.00 | 0.00 | 50 | 1009.2 |
| 20260505005014 | 20 | 344 | 0.0 | 3.2 | 0.00 | 0.00 | 0.00 | 50 | 1009.2 |
| 20260505004649 | 20 | 102 | 0.0 | 0.0 | 0.00 | 0.00 | 0.00 | 51 | 1009.3 |
| 20260505004322 | 20 | 102 | 0.0 | 3.2 | 0.00 | 0.00 | 0.00 | 49 | 1009.3 |
| 20260505004215 | 20 | 102 | 0.0 | 3.2 | 0.00 | 0.00 | 0.00 | 50 | 1009.3 |
| 20260505004108 | 20 | 102 | 0.0 | 3.2 | 0.00 | 0.00 | 0.00 | 49 | 1009.2 |
| 20260505004006 | 20 | 102 | 0.0 | 3.2 | 0.00 | 0.00 | 0.00 | 49 | 1009.2 |
| 20260505003903 | 20 | 102 | 0.0 | 3.2 | 0.00 | 0.00 | 0.00 | 48 | 1009.2 |
| 20260505003532 | 20 | 194 | 0.0 | 0.0 | 0.00 | 0.00 | 0.00 | 48 | 1009.2 |
| 20260505003427 | 20 | 194 | 0.0 | 3.2 | 0.00 | 0.00 | 0.00 | 48 | 1009.2 |
| 20260505003325 | 20 | 202 | 0.0 | 3.2 | 0.00 | 0.00 | 0.00 | 48 | 1009.2 |
| 20260505003002 | 20 | 223 | 0.0 | 0.0 | 0.00 | 0.00 | 0.00 | 48 | 1009.2 |
| 20260505002859 | 20 | 223 | 0.0 | 1.6 | 0.00 | 0.00 | 0.00 | 48 | 1009.3 |
| 20260505002530 | 21 | 38 | 0.0 | 0.0 | 0.00 | 0.00 | 0.00 | 48 | 1009.2 |
| 20260505002206 | 21 | 38 | 0.0 | 0.0 | 0.00 | 0.00 | 0.00 | 48 | 1009.2 |
| 20260505001843 | 21 | 38 | 0.0 | 1.6 | 0.00 | 0.00 | 0.00 | 47 | 1009.1 |
| 20260505001739 | 21 | 32 | 0.0 | 0.0 | 0.00 | 0.00 | 0.00 | 47 | 1009.1 |
| 20260505001526 | 21 | 32 | 0.0 | 0.0 | 0.00 | 0.00 | 0.00 | 47 | 1009.1 |
| 20260505001420 | 21 | 32 | 0.0 | 0.0 | 0.00 | 0.00 | 0.00 | 47 | 1009.1 |
| 20260505001318 | 21 | 32 | 0.0 | 0.0 | 0.00 | 0.00 | 0.00 | 47 | 1009.1 |
| 20260505001212 | 21 | 106 | 0.0 | 0.0 | 0.00 | 0.00 | 0.00 | 48 | 1009.1 |
| 20260505001104 | 21 | 332 | 0.0 | 1.6 | 0.00 | 0.00 | 0.00 | 48 | 1009.2 |
| 20260505000741 | 21 | 332 | 0.0 | 1.6 | 0.00 | 0.00 | 0.00 | 47 | 1009.1 |
| 20260505000417 | 21 | 132 | 0.0 | 1.6 | 0.00 | 0.00 | 0.00 | 47 | 1009.1 |
| 20260505000313 | 21 | 71 | 0.0 | 1.6 | 0.00 | 0.00 | 0.00 | 48 | 1009.1 |
| 20260505000211 | 21 | 71 | 0.0 | 1.6 | 0.00 | 0.00 | 0.00 | 47 | 1009.1 |
| 20260505000103 | 21 | 114 | 0.0 | 1.6 | 0.00 | 0.00 | 0.00 | 47 | 1009.1 |
| 20260504235957 | 21 | 155 | 0.0 | 1.6 | 0.00 | 0.00 | 0.00 | 47 | 1009.1 |
| 20260504235635 | 21 | 22 | 0.0 | 0.0 | 0.00 | 0.00 | 0.00 | 47 | 1009.0 |
| 20260504235048 | 21 | 119 | 0.0 | 3.2 | 0.00 | 0.00 | 0.00 | 47 | 1009.0 |
| 20260504234940 | 21 | 101 | 0.0 | 3.2 | 0.00 | 0.00 | 0.00 | 47 | 1009.1 |
| 20260504234615 | 21 | 230 | 0.0 | 3.2 | 0.00 | 0.00 | 0.00 | 46 | 1009.0 |
| 20260504234511 | 21 | 67 | 0.0 | 3.2 | 0.00 | 0.00 | 0.00 | 46 | 1009.0 |
| 20260504234407 | 21 | 94 | 0.0 | 3.2 | 0.00 | 0.00 | 0.00 | 46 | 1009.0 |
| 20260504234042 | 21 | 51 | 0.0 | 1.6 | 0.00 | 0.00 | 0.00 | 47 | 1009.0 |
| 20260504233935 | 21 | 323 | 0.0 | 1.6 | 0.00 | 0.00 | 0.00 | 46 | 1009.0 |
| 20260504233832 | 21 | 164 | 0.0 | 1.6 | 0.00 | 0.00 | 0.00 | 46 | 1009.1 |
| 20260504233729 | 21 | 127 | 0.0 | 1.6 | 0.00 | 0.00 | 0.00 | 46 | 1009.0 |
| 20260504233624 | 21 | 75 | 0.0 | 1.6 | 0.00 | 0.00 | 0.00 | 45 | 1009.0 |
| 20260504233518 | 21 | 244 | 0.0 | 0.0 | 0.00 | 0.00 | 0.00 | 46 | 1009.0 |
| 20260504233409 | 21 | 284 | 0.0 | 0.0 | 0.00 | 0.00 | 0.00 | 46 | 1009.0 |
| 20260504233306 | 21 | 46 | 0.0 | 1.6 | 0.00 | 0.00 | 0.00 | 46 | 1008.9 |
| 20260504233201 | 21 | 46 | 0.0 | 1.6 | 0.00 | 0.00 | 0.00 | 45 | 1008.9 |
| 20260504233056 | 21 | 167 | 0.0 | 0.0 | 0.00 | 0.00 | 0.00 | 45 | 1008.9 |
| 20260504232952 | 21 | 262 | 0.0 | 0.0 | 0.00 | 0.00 | 0.00 | 45 | 1008.9 |
| 20260504232846 | 21 | 267 | 0.0 | 4.8 | 0.00 | 0.00 | 0.00 | 45 | 1008.9 |
| 20260504232743 | 21 | 267 | 0.0 | 8.0 | 0.00 | 0.00 | 0.00 | 45 | 1008.8 |
| 20260504232638 | 21 | 43 | 0.0 | 8.0 | 0.00 | 0.00 | 0.00 | 45 | 1008.9 |
| 20260504232533 | 21 | 296 | 0.0 | 8.0 | 0.00 | 0.00 | 0.00 | 45 | 1008.8 |
| 20260504232428 | 21 | 296 | 0.0 | 8.0 | 0.00 | 0.00 | 0.00 | 45 | 1008.8 |
| 20260504232325 | 21 | 283 | 0.0 | 8.0 | 0.00 | 0.00 | 0.00 | 45 | 1008.8 |
| 20260504232222 | 21 | 74 | 0.0 | 8.0 | 0.00 | 0.00 | 0.00 | 45 | 1008.8 |
| 20260504232116 | 21 | 338 | 0.0 | 8.0 | 0.00 | 0.00 | 0.00 | 45 | 1008.8 |
| 20260504232010 | 21 | 157 | 0.0 | 8.0 | 0.00 | 0.00 | 0.00 | 44 | 1008.8 |
| 20260504231903 | 21 | 80 | 0.0 | 8.0 | 0.00 | 0.00 | 0.00 | 44 | 1008.8 |
| 20260504231801 | 21 | 80 | 0.0 | 12.9 | 0.00 | 0.00 | 0.00 | 44 | 1008.8 |
| 20260504231658 | 21 | 155 | 0.0 | 12.9 | 0.00 | 0.00 | 0.00 | 44 | 1008.9 |
| 20260504231549 | 21 | 53 | 0.0 | 12.9 | 0.00 | 0.00 | 0.00 | 45 | 1008.8 |
| 20260504231446 | 22 | 53 | 0.0 | 12.9 | 0.00 | 0.00 | 0.00 | 45 | 1008.8 |
| 20260504231340 | 22 | 205 | 0.0 | 12.9 | 0.00 | 0.00 | 0.00 | 44 | 1008.8 |
| 20260504231236 | 22 | 45 | 0.0 | 12.9 | 0.00 | 0.00 | 0.00 | 45 | 1008.8 |
| 20260504231133 | 22 | 91 | 0.0 | 12.9 | 0.00 | 0.00 | 0.00 | 45 | 1008.8 |
| 20260504231028 | 22 | 91 | 0.0 | 12.9 | 0.00 | 0.00 | 0.00 | 44 | 1008.8 |
| 20260504230924 | 22 | 163 | 1.6 | 12.9 | 0.00 | 0.00 | 0.00 | 45 | 1008.8 |
| 20260504230822 | 22 | 300 | 1.6 | 12.9 | 0.00 | 0.00 | 0.00 | 44 | 1008.8 |
| 20260504230714 | 22 | 182 | 1.6 | 12.9 | 0.00 | 0.00 | 0.00 | 45 | 1008.8 |
| 20260504230608 | 22 | 213 | 1.6 | 12.9 | 0.00 | 0.00 | 0.00 | 44 | 1008.8 |
| 20260504230505 | 22 | 33 | 1.6 | 12.9 | 0.00 | 0.00 | 0.00 | 44 | 1008.8 |
| 20260504230141 | 22 | 104 | 0.0 | 12.9 | 0.00 | 0.00 | 0.00 | 44 | 1008.7 |
| 20260504230039 | 22 | 80 | 0.0 | 12.9 | 0.00 | 0.00 | 0.00 | 44 | 1008.8 |
| 20260504225935 | 22 | 182 | 0.0 | 12.9 | 0.00 | 0.00 | 0.00 | 43 | 1008.8 |
| 20260504225830 | 22 | 332 | 0.0 | 12.9 | 0.00 | 0.00 | 0.00 | 42 | 1008.9 |
| 20260504225724 | 22 | 105 | 0.0 | 8.0 | 0.00 | 0.00 | 0.00 | 42 | 1008.8 |
| 20260504225618 | 22 | 204 | 0.0 | 4.8 | 0.00 | 0.00 | 0.00 | 43 | 1008.8 |
| 20260504225515 | 22 | 116 | 0.0 | 4.8 | 0.00 | 0.00 | 0.00 | 43 | 1008.8 |
| 20260504225410 | 22 | 94 | 0.0 | 4.8 | 0.00 | 0.00 | 0.00 | 43 | 1008.8 |
| 20260504225307 | 22 | 94 | 0.0 | 4.8 | 0.00 | 0.00 | 0.00 | 43 | 1008.8 |
| 20260504224940 | 22 | 51 | 0.0 | 8.0 | 0.00 | 0.00 | 0.00 | 42 | 1008.7 |
| 20260504224832 | 22 | 196 | 0.0 | 8.0 | 0.00 | 0.00 | 0.00 | 42 | 1008.7 |
| 20260504224730 | 22 | 169 | 0.0 | 8.0 | 0.00 | 0.00 | 0.00 | 43 | 1008.8 |
| 20260504224622 | 22 | 311 | 0.0 | 8.0 | 0.00 | 0.00 | 0.00 | 43 | 1008.8 |
| 20260504224518 | 22 | 346 | 0.0 | 8.0 | 0.00 | 0.00 | 0.00 | 43 | 1008.7 |
| 20260504224412 | 22 | 280 | 0.0 | 8.0 | 0.00 | 0.00 | 0.00 | 43 | 1008.7 |
| 20260504224308 | 22 | 252 | 0.0 | 8.0 | 0.00 | 0.00 | 0.00 | 43 | 1008.7 |
| 20260504224201 | 22 | 215 | 0.0 | 8.0 | 0.00 | 0.00 | 0.00 | 43 | 1008.7 |
| 20260504224056 | 22 | 128 | 0.0 | 8.0 | 0.00 | 0.00 | 0.00 | 42 | 1008.6 |
| 20260504223954 | 22 | 275 | 1.6 | 8.0 | 0.00 | 0.00 | 0.00 | 42 | 1008.6 |
| 20260504223848 | 22 | 194 | 1.6 | 8.0 | 0.00 | 0.00 | 0.00 | 42 | 1008.7 |
| 20260504223744 | 22 | 120 | 1.6 | 8.0 | 0.00 | 0.00 | 0.00 | 42 | 1008.6 |
| 20260504223638 | 22 | 215 | 1.6 | 8.0 | 0.00 | 0.00 | 0.00 | 42 | 1008.6 |
| 20260504223313 | 22 | 126 | 0.0 | 8.0 | 0.00 | 0.00 | 0.00 | 42 | 1008.6 |
| 20260504223207 | 22 | 126 | 0.0 | 8.0 | 0.00 | 0.00 | 0.00 | 41 | 1008.6 |
| 20260504223103 | 22 | 186 | 0.0 | 8.0 | 0.00 | 0.00 | 0.00 | 42 | 1008.6 |
| 20260504222957 | 22 | 219 | 0.0 | 4.8 | 0.00 | 0.00 | 0.00 | 40 | 1008.6 |
| 20260504222634 | 22 | 145 | 0.0 | 8.0 | 0.00 | 0.00 | 0.00 | 41 | 1008.6 |
| 20260504222528 | 22 | 45 | 0.0 | 8.0 | 0.00 | 0.00 | 0.00 | 41 | 1008.6 |
| 20260504221945 | 22 | 230 | 0.0 | 8.0 | 0.00 | 0.00 | 0.00 | 41 | 1008.6 |
| 20260504221401 | 23 | 195 | 0.0 | 8.0 | 0.00 | 0.00 | 0.00 | 39 | 1008.7 |
| 20260504221256 | 23 | 206 | 1.6 | 8.0 | 0.00 | 0.00 | 0.00 | 39 | 1008.7 |
| 20260504221151 | 23 | 160 | 1.6 | 8.0 | 0.00 | 0.00 | 0.00 | 39 | 1008.6 |
| 20260504221049 | 23 | 123 | 0.0 | 8.0 | 0.00 | 0.00 | 0.00 | 39 | 1008.6 |
| 20260504220944 | 23 | 164 | 1.6 | 8.0 | 0.00 | 0.00 | 0.00 | 40 | 1008.7 |
| 20260504220841 | 23 | 132 | 0.0 | 8.0 | 0.00 | 0.00 | 0.00 | 41 | 1008.8 |
| 20260504220736 | 23 | 240 | 0.0 | 6.4 | 0.00 | 0.00 | 0.00 | 40 | 1008.7 |
| 20260504220634 | 23 | 17 | 0.0 | 6.4 | 0.00 | 0.00 | 0.00 | 40 | 1008.7 |
| 20260504220530 | 23 | 138 | 0.0 | 6.4 | 0.00 | 0.00 | 0.00 | 40 | 1008.8 |
| 20260504220426 | 23 | 240 | 1.6 | 6.4 | 0.00 | 0.00 | 0.00 | 40 | 1008.7 |
| 20260504220322 | 23 | 229 | 1.6 | 6.4 | 0.00 | 0.00 | 0.00 | 39 | 1008.7 |
| 20260504220215 | 23 | 225 | 1.6 | 6.4 | 0.00 | 0.00 | 0.00 | 39 | 1008.8 |
| 20260504220107 | 23 | 225 | 1.6 | 12.9 | 0.00 | 0.00 | 0.00 | 39 | 1008.7 |
| 20260504220002 | 23 | 149 | 1.6 | 12.9 | 0.00 | 0.00 | 0.00 | 38 | 1008.7 |
| 20260504215637 | 23 | 205 | 1.6 | 12.9 | 0.00 | 0.00 | 0.00 | 38 | 1008.8 |
| 20260504215531 | 23 | 185 | 1.6 | 12.9 | 0.00 | 0.00 | 0.00 | 38 | 1008.8 |
| 20260504215423 | 23 | 233 | 0.0 | 12.9 | 0.00 | 0.00 | 0.00 | 39 | 1008.8 |
| 20260504215320 | 23 | 183 | 1.6 | 12.9 | 0.00 | 0.00 | 0.00 | 38 | 1008.8 |
| 20260504215216 | 23 | 158 | 1.6 | 12.9 | 0.00 | 0.00 | 0.00 | 37 | 1008.8 |
| 20260504215113 | 23 | 61 | 1.6 | 12.9 | 0.00 | 0.00 | 0.00 | 38 | 1008.8 |
| 20260504215009 | 23 | 182 | 1.6 | 12.9 | 0.00 | 0.00 | 0.00 | 38 | 1008.8 |
| 20260504214641 | 23 | 75 | 1.6 | 12.9 | 0.00 | 0.00 | 0.00 | 39 | 1008.8 |
| 20260504214536 | 23 | 204 | 1.6 | 12.9 | 0.00 | 0.00 | 0.00 | 38 | 1008.8 |
| 20260504214431 | 23 | 168 | 1.6 | 12.9 | 0.00 | 0.00 | 0.00 | 39 | 1008.8 |
| 20260504214323 | 23 | 182 | 1.6 | 12.9 | 0.00 | 0.00 | 0.00 | 39 | 1008.8 |
| 20260504214220 | 23 | 67 | 1.6 | 12.9 | 0.00 | 0.00 | 0.00 | 39 | 1008.8 |
| 20260504214117 | 23 | 182 | 1.6 | 11.3 | 0.00 | 0.00 | 0.00 | 39 | 1008.8 |
| 20260504214012 | 23 | 146 | 1.6 | 11.3 | 0.00 | 0.00 | 0.00 | 39 | 1008.7 |
| 20260504213909 | 23 | 157 | 1.6 | 11.3 | 0.00 | 0.00 | 0.00 | 39 | 1008.6 |
| 20260504213806 | 23 | 29 | 1.6 | 11.3 | 0.00 | 0.00 | 0.00 | 38 | 1008.6 |
| 20260504213702 | 23 | 139 | 1.6 | 11.3 | 0.00 | 0.00 | 0.00 | 39 | 1008.6 |
| 20260504213556 | 23 | 152 | 1.6 | 11.3 | 0.00 | 0.00 | 0.00 | 40 | 1008.7 |
| 20260504213449 | 23 | 187 | 1.6 | 11.3 | 0.00 | 0.00 | 0.00 | 40 | 1008.7 |
| 20260504213342 | 23 | 273 | 1.6 | 11.3 | 0.00 | 0.00 | 0.00 | 38 | 1008.7 |
| 20260504213018 | 23 | 52 | 1.6 | 4.8 | 0.00 | 0.00 | 0.00 | 38 | 1008.8 |
| 20260504212910 | 23 | 182 | 1.6 | 4.8 | 0.00 | 0.00 | 0.00 | 38 | 1008.8 |
| 20260504212805 | 23 | 134 | 1.6 | 4.8 | 0.00 | 0.00 | 0.00 | 38 | 1008.8 |
| 20260504212700 | 23 | 178 | 1.6 | 4.8 | 0.00 | 0.00 | 0.00 | 37 | 1008.8 |
| 20260504212556 | 23 | 229 | 1.6 | 4.8 | 0.00 | 0.00 | 0.00 | 38 | 1008.8 |
| 20260504212448 | 23 | 159 | 1.6 | 4.8 | 0.00 | 0.00 | 0.00 | 38 | 1008.8 |
| 20260504212347 | 23 | 276 | 1.6 | 4.8 | 0.00 | 0.00 | 0.00 | 37 | 1008.7 |
| 20260504212020 | 23 | 116 | 1.6 | 8.0 | 0.00 | 0.00 | 0.00 | 38 | 1008.8 |
| 20260504211917 | 23 | 185 | 1.6 | 8.0 | 0.00 | 0.00 | 0.00 | 38 | 1008.7 |
| 20260504211809 | 23 | 250 | 1.6 | 8.0 | 0.00 | 0.00 | 0.00 | 37 | 1008.8 |
| 20260504211703 | 23 | 351 | 1.6 | 8.0 | 0.00 | 0.00 | 0.00 | 37 | 1008.8 |
| 20260504211600 | 23 | 206 | 1.6 | 8.0 | 0.00 | 0.00 | 0.00 | 37 | 1008.8 |
| 20260504211455 | 23 | 90 | 1.6 | 8.0 | 0.00 | 0.00 | 0.00 | 37 | 1008.8 |
| 20260504211129 | 23 | 120 | 1.6 | 8.0 | 0.00 | 0.00 | 0.00 | 36 | 1008.8 |
| 20260504211028 | 23 | 122 | 1.6 | 8.0 | 0.00 | 0.00 | 0.00 | 36 | 1008.8 |
| 20260504210924 | 23 | 180 | 1.6 | 8.0 | 0.00 | 0.00 | 0.00 | 36 | 1008.9 |
| 20260504210820 | 23 | 182 | 1.6 | 8.0 | 0.00 | 0.00 | 0.00 | 36 | 1009.0 |
| 20260504210714 | 23 | 78 | 1.6 | 8.0 | 0.00 | 0.00 | 0.00 | 36 | 1008.9 |
| 20260504210607 | 23 | 205 | 1.6 | 8.0 | 0.00 | 0.00 | 0.00 | 37 | 1008.9 |
| 20260504210501 | 23 | 95 | 1.6 | 8.0 | 0.00 | 0.00 | 0.00 | 36 | 1008.9 |
| 20260504210357 | 23 | 164 | 1.6 | 8.0 | 0.00 | 0.00 | 0.00 | 37 | 1008.9 |
| 20260504210254 | 23 | 17 | 1.6 | 11.3 | 0.00 | 0.00 | 0.00 | 36 | 1008.9 |
| 20260504205928 | 23 | 136 | 1.6 | 11.3 | 0.00 | 0.00 | 0.00 | 36 | 1008.9 |
| 20260504205823 | 23 | 137 | 1.6 | 11.3 | 0.00 | 0.00 | 0.00 | 36 | 1008.9 |
| 20260504205717 | 23 | 46 | 1.6 | 11.3 | 0.00 | 0.00 | 0.00 | 37 | 1008.9 |
| 20260504205614 | 23 | 182 | 1.6 | 11.3 | 0.00 | 0.00 | 0.00 | 36 | 1008.9 |
| 20260504205511 | 23 | 187 | 1.6 | 11.3 | 0.00 | 0.00 | 0.00 | 36 | 1008.9 |
| 20260504205404 | 23 | 64 | 3.2 | 11.3 | 0.00 | 0.00 | 0.00 | 36 | 1008.9 |
| 20260504204825 | 23 | 80 | 1.6 | 11.3 | 0.00 | 0.00 | 0.00 | 34 | 1008.8 |
| 20260504204457 | 24 | 269 | 1.6 | 11.3 | 0.00 | 0.00 | 0.00 | 35 | 1008.8 |
| 20260504204355 | 24 | 211 | 1.6 | 11.3 | 0.00 | 0.00 | 0.00 | 35 | 1008.9 |
| 20260504204249 | 24 | 338 | 1.6 | 6.4 | 0.00 | 0.00 | 0.00 | 35 | 1008.9 |
| 20260504204143 | 24 | 212 | 1.6 | 6.4 | 0.00 | 0.00 | 0.00 | 35 | 1008.9 |
| 20260504204038 | 24 | 101 | 1.6 | 6.4 | 0.00 | 0.00 | 0.00 | 35 | 1008.9 |
| 20260504203934 | 24 | 91 | 1.6 | 6.4 | 0.00 | 0.00 | 0.00 | 37 | 1008.9 |
| 20260504203827 | 24 | 88 | 1.6 | 8.0 | 0.00 | 0.00 | 0.00 | 36 | 1008.8 |
| 20260504203721 | 23 | 244 | 1.6 | 8.0 | 0.00 | 0.00 | 0.00 | 36 | 1008.8 |
| 20260504203615 | 23 | 15 | 1.6 | 8.0 | 0.00 | 0.00 | 0.00 | 37 | 1008.8 |
| 20260504203512 | 23 | 219 | 1.6 | 8.0 | 0.00 | 0.00 | 0.00 | 36 | 1008.8 |
| 20260504203410 | 23 | 58 | 1.6 | 8.0 | 0.00 | 0.00 | 0.00 | 35 | 1008.8 |
| 20260504203303 | 23 | 215 | 1.6 | 8.0 | 0.00 | 0.00 | 0.00 | 36 | 1008.8 |
| 20260504203157 | 23 | 243 | 1.6 | 8.0 | 0.00 | 0.00 | 0.00 | 36 | 1008.8 |
| 20260504203052 | 23 | 212 | 1.6 | 8.0 | 0.00 | 0.00 | 0.00 | 36 | 1008.8 |
| 20260504202947 | 23 | 244 | 1.6 | 8.0 | 0.00 | 0.00 | 0.00 | 36 | 1008.8 |
| 20260504202844 | 23 | 192 | 1.6 | 8.0 | 0.00 | 0.00 | 0.00 | 36 | 1008.8 |
| 20260504202741 | 23 | 163 | 1.6 | 8.0 | 0.00 | 0.00 | 0.00 | 35 | 1008.8 |
| 20260504202637 | 23 | 211 | 1.6 | 8.0 | 0.00 | 0.00 | 0.00 | 37 | 1008.8 |
| 20260504202310 | 23 | 5 | 1.6 | 8.0 | 0.00 | 0.00 | 0.00 | 36 | 1008.9 |
| 20260504202207 | 23 | 169 | 1.6 | 8.0 | 0.00 | 0.00 | 0.00 | 35 | 1008.9 |
| 20260504201847 | 24 | 345 | 1.6 | 16.1 | 0.00 | 0.00 | 0.00 | 34 | 1009.0 |
| 20260504201743 | 24 | 136 | 1.6 | 16.1 | 0.00 | 0.00 | 0.00 | 34 | 1008.9 |
| 20260504201641 | 24 | 108 | 1.6 | 16.1 | 0.00 | 0.00 | 0.00 | 35 | 1008.9 |
| 20260504201534 | 23 | 55 | 1.6 | 16.1 | 0.00 | 0.00 | 0.00 | 35 | 1009.0 |
| 20260504201427 | 23 | 119 | 1.6 | 16.1 | 0.00 | 0.00 | 0.00 | 35 | 1009.0 |
| 20260504201320 | 23 | 263 | 1.6 | 16.1 | 0.00 | 0.00 | 0.00 | 35 | 1009.0 |
| 20260504201214 | 23 | 325 | 1.6 | 16.1 | 0.00 | 0.00 | 0.00 | 35 | 1009.0 |
| 20260504201110 | 23 | 254 | 1.6 | 16.1 | 0.00 | 0.00 | 0.00 | 34 | 1009.0 |
| 20260504201003 | 24 | 232 | 1.6 | 16.1 | 0.00 | 0.00 | 0.00 | 32 | 1009.0 |
| 20260504200901 | 24 | 255 | 1.6 | 16.1 | 0.00 | 0.00 | 0.00 | 33 | 1009.0 |
| 20260504200757 | 24 | 0 | 1.6 | 16.1 | 0.00 | 0.00 | 0.00 | 33 | 1009.0 |
| 20260504200653 | 24 | 187 | 1.6 | 16.1 | 0.00 | 0.00 | 0.00 | 33 | 1009.0 |
| 20260504200545 | 24 | 197 | 1.6 | 16.1 | 0.00 | 0.00 | 0.00 | 36 | 1009.1 |
| 20260504200439 | 24 | 153 | 1.6 | 16.1 | 0.00 | 0.00 | 0.00 | 36 | 1009.1 |
| 20260504200336 | 24 | 105 | 1.6 | 16.1 | 0.00 | 0.00 | 0.00 | 34 | 1009.1 |
| 20260504200230 | 24 | 145 | 1.6 | 16.1 | 0.00 | 0.00 | 0.00 | 35 | 1009.0 |
| 20260504195902 | 24 | 269 | 0.0 | 16.1 | 0.00 | 0.00 | 0.00 | 35 | 1009.0 |
| 20260504195755 | 24 | 245 | 0.0 | 11.3 | 0.00 | 0.00 | 0.00 | 35 | 1009.1 |
| 20260504195650 | 24 | 85 | 1.6 | 11.3 | 0.00 | 0.00 | 0.00 | 34 | 1009.1 |
| 20260504195545 | 24 | 146 | 1.6 | 11.3 | 0.00 | 0.00 | 0.00 | 35 | 1009.1 |
| 20260504195438 | 23 | 71 | 1.6 | 11.3 | 0.00 | 0.00 | 0.00 | 33 | 1009.1 |
| 20260504195115 | 24 | 54 | 1.6 | 11.3 | 0.00 | 0.00 | 0.00 | 34 | 1009.3 |
| 20260504195009 | 24 | 36 | 1.6 | 11.3 | 0.00 | 0.00 | 0.00 | 34 | 1009.3 |
| 20260504194904 | 24 | 259 | 1.6 | 11.3 | 0.00 | 0.00 | 0.00 | 33 | 1009.4 |
| 20260504194801 | 24 | 59 | 1.6 | 11.3 | 0.00 | 0.00 | 0.00 | 33 | 1009.3 |
| 20260504194657 | 24 | 107 | 1.6 | 11.3 | 0.00 | 0.00 | 0.00 | 33 | 1009.3 |
| 20260504194554 | 24 | 128 | 0.0 | 11.3 | 0.00 | 0.00 | 0.00 | 33 | 1009.2 |
| 20260504194446 | 24 | 122 | 0.0 | 6.4 | 0.00 | 0.00 | 0.00 | 34 | 1009.3 |
| 20260504194342 | 24 | 180 | 0.0 | 6.4 | 0.00 | 0.00 | 0.00 | 35 | 1009.4 |
| 20260504194235 | 24 | 242 | 0.0 | 6.4 | 0.00 | 0.00 | 0.00 | 36 | 1009.3 |
| 20260504194129 | 24 | 103 | 1.6 | 12.9 | 0.00 | 0.00 | 0.00 | 35 | 1009.4 |
| 20260504194024 | 24 | 115 | 1.6 | 12.9 | 0.00 | 0.00 | 0.00 | 34 | 1009.4 |
| 20260504193917 | 24 | 43 | 1.6 | 12.9 | 0.00 | 0.00 | 0.00 | 34 | 1009.4 |
| 20260504193809 | 24 | 341 | 1.6 | 12.9 | 0.00 | 0.00 | 0.00 | 33 | 1009.4 |
| 20260504193442 | 24 | 0 | 1.6 | 12.9 | 0.00 | 0.00 | 0.00 | 32 | 1009.6 |
| 20260504193338 | 24 | 240 | 1.6 | 12.9 | 0.00 | 0.00 | 0.00 | 33 | 1009.6 |
| 20260504193232 | 24 | 330 | 1.6 | 12.9 | 0.00 | 0.00 | 0.00 | 33 | 1009.5 |
| 20260504192906 | 24 | 216 | 1.6 | 12.9 | 0.00 | 0.00 | 0.00 | 35 | 1009.6 |
| 20260504192802 | 24 | 251 | 1.6 | 12.9 | 0.00 | 0.00 | 0.00 | 35 | 1009.6 |
| 20260504192659 | 24 | 121 | 1.6 | 12.9 | 0.00 | 0.00 | 0.00 | 34 | 1009.6 |
| 20260504192552 | 24 | 180 | 1.6 | 12.9 | 0.00 | 0.00 | 0.00 | 33 | 1009.6 |
| 20260504192448 | 24 | 248 | 1.6 | 12.9 | 0.00 | 0.00 | 0.00 | 33 | 1009.6 |
| 20260504192340 | 24 | 343 | 1.6 | 12.9 | 0.00 | 0.00 | 0.00 | 33 | 1009.6 |
| 20260504192234 | 25 | 119 | 1.6 | 12.9 | 0.00 | 0.00 | 0.00 | 32 | 1009.6 |
| 20260504192127 | 25 | 87 | 1.6 | 9.7 | 0.00 | 0.00 | 0.00 | 34 | 1009.7 |
| 20260504192022 | 25 | 213 | 1.6 | 9.7 | 0.00 | 0.00 | 0.00 | 33 | 1009.7 |
| 20260504191655 | 24 | 76 | 1.6 | 9.7 | 0.00 | 0.00 | 0.00 | 33 | 1009.7 |
| 20260504191331 | 24 | 119 | 1.6 | 9.7 | 0.00 | 0.00 | 0.00 | 32 | 1009.8 |
| 20260504190746 | 24 | 173 | 1.6 | 16.1 | 0.00 | 0.00 | 0.00 | 34 | 1010.0 |
| 20260504190641 | 24 | 347 | 1.6 | 16.1 | 0.00 | 0.00 | 0.00 | 34 | 1009.9 |
| 20260504190539 | 24 | 100 | 1.6 | 16.1 | 0.00 | 0.00 | 0.00 | 33 | 1009.9 |
| 20260504190433 | 24 | 239 | 3.2 | 16.1 | 0.00 | 0.00 | 0.00 | 33 | 1009.9 |
| 20260504190328 | 24 | 123 | 3.2 | 16.1 | 0.00 | 0.00 | 0.00 | 32 | 1009.9 |
| 20260504190221 | 24 | 238 | 3.2 | 16.1 | 0.00 | 0.00 | 0.00 | 33 | 1010.0 |
| 20260504190114 | 24 | 192 | 1.6 | 16.1 | 0.00 | 0.00 | 0.00 | 33 | 1010.0 |
| 20260504190011 | 25 | 151 | 1.6 | 16.1 | 0.00 | 0.00 | 0.00 | 33 | 1010.0 |
| 20260504185424 | 24 | 162 | 3.2 | 16.1 | 0.00 | 0.00 | 0.00 | 34 | 1010.2 |
| 20260504185320 | 24 | 225 | 3.2 | 16.1 | 0.00 | 0.00 | 0.00 | 33 | 1010.2 |
| 20260504185217 | 24 | 192 | 3.2 | 16.1 | 0.00 | 0.00 | 0.00 | 33 | 1010.2 |
| 20260504185115 | 24 | 222 | 3.2 | 16.1 | 0.00 | 0.00 | 0.00 | 31 | 1010.2 |
| 20260504185009 | 25 | 76 | 3.2 | 16.1 | 0.00 | 0.00 | 0.00 | 30 | 1010.1 |
| 20260504184901 | 25 | 9 | 1.6 | 12.9 | 0.00 | 0.00 | 0.00 | 32 | 1010.3 |
| 20260504184757 | 25 | 218 | 1.6 | 12.9 | 0.00 | 0.00 | 0.00 | 33 | 1010.3 |
| 20260504184650 | 25 | 95 | 1.6 | 12.9 | 0.00 | 0.00 | 0.00 | 33 | 1010.4 |
| 20260504184328 | 25 | 288 | 1.6 | 12.9 | 0.00 | 0.00 | 0.00 | 34 | 1010.4 |
| 20260504184223 | 25 | 105 | 1.6 | 9.7 | 0.00 | 0.00 | 0.00 | 32 | 1010.4 |
| 20260504183903 | 24 | 92 | 1.6 | 8.0 | 0.00 | 0.00 | 0.00 | 32 | 1010.4 |
| 20260504183757 | 25 | 261 | 1.6 | 12.9 | 0.00 | 0.00 | 0.00 | 32 | 1010.4 |
| 20260504183655 | 25 | 149 | 1.6 | 12.9 | 0.00 | 0.00 | 0.00 | 34 | 1010.4 |
| 20260504183549 | 24 | 58 | 0.0 | 12.9 | 0.00 | 0.00 | 0.00 | 32 | 1010.4 |
| 20260504183445 | 24 | 36 | 0.0 | 12.9 | 0.00 | 0.00 | 0.00 | 31 | 1010.5 |
| 20260504183342 | 25 | 281 | 1.6 | 12.9 | 0.00 | 0.00 | 0.00 | 33 | 1010.5 |
| 20260504183240 | 24 | 137 | 1.6 | 12.9 | 0.00 | 0.00 | 0.00 | 33 | 1010.6 |
| 20260504183138 | 25 | 105 | 1.6 | 12.9 | 0.00 | 0.00 | 0.00 | 34 | 1010.6 |
| 20260504183031 | 24 | 240 | 1.6 | 12.9 | 0.00 | 0.00 | 0.00 | 33 | 1010.6 |
| 20260504182929 | 25 | 323 | 1.6 | 12.9 | 0.00 | 0.00 | 0.00 | 33 | 1010.6 |
| 20260504182824 | 24 | 277 | 1.6 | 14.5 | 0.00 | 0.00 | 0.00 | 34 | 1010.7 |
| 20260504182722 | 24 | 240 | 1.6 | 14.5 | 0.00 | 0.00 | 0.00 | 34 | 1010.7 |
| 20260504182614 | 24 | 263 | 1.6 | 14.5 | 0.00 | 0.00 | 0.00 | 33 | 1010.7 |
| 20260504182512 | 24 | 355 | 1.6 | 14.5 | 0.00 | 0.00 | 0.00 | 33 | 1010.7 |
| 20260504182408 | 25 | 275 | 1.6 | 14.5 | 0.00 | 0.00 | 0.00 | 35 | 1010.8 |
| 20260504182306 | 24 | 51 | 1.6 | 14.5 | 0.00 | 0.00 | 0.00 | 34 | 1010.9 |
| 20260504181943 | 25 | 174 | 1.6 | 14.5 | 0.00 | 0.00 | 0.00 | 32 | 1010.9 |
| 20260504181842 | 25 | 333 | 1.6 | 14.5 | 0.00 | 0.00 | 0.00 | 33 | 1010.8 |
| 20260504181736 | 25 | 242 | 1.6 | 14.5 | 0.00 | 0.00 | 0.00 | 33 | 1010.9 |
| 20260504181633 | 25 | 185 | 1.6 | 14.5 | 0.00 | 0.00 | 0.00 | 37 | 1010.9 |
| 20260504181527 | 24 | 57 | 1.6 | 14.5 | 0.00 | 0.00 | 0.00 | 35 | 1011.0 |
| 20260504181423 | 24 | 139 | 1.6 | 14.5 | 0.00 | 0.00 | 0.00 | 34 | 1011.0 |
| 20260504181316 | 24 | 47 | 1.6 | 14.5 | 0.00 | 0.00 | 0.00 | 33 | 1011.0 |
| 20260504181209 | 24 | 140 | 1.6 | 14.5 | 0.00 | 0.00 | 0.00 | 34 | 1011.1 |
| 20260504181107 | 24 | 117 | 1.6 | 14.5 | 0.00 | 0.00 | 0.00 | 34 | 1011.1 |
| 20260504181002 | 23 | 199 | 1.6 | 14.5 | 0.00 | 0.00 | 0.00 | 35 | 1011.1 |
| 20260504180857 | 24 | 263 | 1.6 | 14.5 | 0.00 | 0.00 | 0.00 | 33 | 1011.1 |
| 20260504180752 | 24 | 209 | 1.6 | 11.3 | 0.00 | 0.00 | 0.00 | 34 | 1011.2 |
| 20260504180646 | 24 | 315 | 1.6 | 11.3 | 0.00 | 0.00 | 0.00 | 34 | 1011.1 |
| 20260504180320 | 24 | 78 | 1.6 | 11.3 | 0.00 | 0.00 | 0.00 | 34 | 1011.2 |
| 20260504180214 | 24 | 98 | 1.6 | 14.5 | 0.00 | 0.00 | 0.00 | 34 | 1011.2 |
| 20260504180111 | 24 | 10 | 1.6 | 14.5 | 0.00 | 0.00 | 0.00 | 32 | 1011.2 |
| 20260504180005 | 23 | 156 | 1.6 | 14.5 | 0.00 | 0.00 | 0.00 | 35 | 1011.2 |
| 20260504175422 | 24 | 251 | 1.6 | 14.5 | 0.00 | 0.00 | 0.00 | 33 | 1011.2 |
| 20260504175318 | 24 | 246 | 1.6 | 14.5 | 0.00 | 0.00 | 0.00 | 34 | 1011.2 |
| 20260504175212 | 24 | 140 | 1.6 | 14.5 | 0.00 | 0.00 | 0.00 | 35 | 1011.2 |
| 20260504175110 | 24 | 128 | 1.6 | 14.5 | 0.00 | 0.00 | 0.00 | 34 | 1011.2 |
| 20260504175006 | 24 | 206 | 1.6 | 14.5 | 0.00 | 0.00 | 0.00 | 33 | 1011.2 |
| 20260504174903 | 24 | 120 | 1.6 | 14.5 | 0.00 | 0.00 | 0.00 | 35 | 1011.2 |
| 20260504174758 | 24 | 107 | 1.6 | 14.5 | 0.00 | 0.00 | 0.00 | 33 | 1011.2 |
| 20260504174436 | 23 | 83 | 1.6 | 14.5 | 0.00 | 0.00 | 0.00 | 32 | 1011.3 |
| 20260504174334 | 23 | 312 | 1.6 | 14.5 | 0.00 | 0.00 | 0.00 | 33 | 1011.4 |
| 20260504174228 | 23 | 184 | 1.6 | 14.5 | 0.00 | 0.00 | 0.00 | 33 | 1011.3 |
| 20260504173903 | 24 | 308 | 0.0 | 12.9 | 0.00 | 0.00 | 0.00 | 33 | 1011.4 |
| 20260504173755 | 24 | 103 | 0.0 | 12.9 | 0.00 | 0.00 | 0.00 | 34 | 1011.4 |
| 20260504173652 | 23 | 86 | 1.6 | 12.9 | 0.00 | 0.00 | 0.00 | 35 | 1011.4 |
| 20260504173549 | 23 | 106 | 1.6 | 12.9 | 0.00 | 0.00 | 0.00 | 34 | 1011.5 |
| 20260504173442 | 23 | 111 | 1.6 | 12.9 | 0.00 | 0.00 | 0.00 | 36 | 1011.5 |
| 20260504173339 | 23 | 185 | 3.2 | 12.9 | 0.00 | 0.00 | 0.00 | 36 | 1011.5 |
| 20260504173234 | 23 | 92 | 1.6 | 12.9 | 0.00 | 0.00 | 0.00 | 34 | 1011.5 |
| 20260504173129 | 23 | 163 | 3.2 | 12.9 | 0.00 | 0.00 | 0.00 | 37 | 1011.5 |
| 20260504173022 | 23 | 49 | 3.2 | 12.9 | 0.00 | 0.00 | 0.00 | 39 | 1011.5 |
| 20260504172917 | 23 | 30 | 3.2 | 12.9 | 0.00 | 0.00 | 0.00 | 36 | 1011.5 |
| 20260504172810 | 23 | 28 | 3.2 | 12.9 | 0.00 | 0.00 | 0.00 | 35 | 1011.6 |
| 20260504172705 | 23 | 92 | 1.6 | 12.9 | 0.00 | 0.00 | 0.00 | 35 | 1011.6 |
| 20260504172602 | 23 | 74 | 1.6 | 12.9 | 0.00 | 0.00 | 0.00 | 34 | 1011.7 |
| 20260504172459 | 23 | 128 | 1.6 | 12.9 | 0.00 | 0.00 | 0.00 | 34 | 1011.7 |
| 20260504172353 | 23 | 252 | 1.6 | 19.3 | 0.00 | 0.00 | 0.00 | 34 | 1011.6 |
| 20260504172031 | 23 | 107 | 1.6 | 19.3 | 0.00 | 0.00 | 0.00 | 37 | 1011.6 |
| 20260504171926 | 23 | 34 | 1.6 | 19.3 | 0.00 | 0.00 | 0.00 | 33 | 1011.6 |
| 20260504171557 | 23 | 224 | 1.6 | 19.3 | 0.00 | 0.00 | 0.00 | 35 | 1011.8 |
| 20260504171455 | 23 | 148 | 3.2 | 19.3 | 0.00 | 0.00 | 0.00 | 36 | 1011.8 |
| 20260504171133 | 23 | 221 | 3.2 | 19.3 | 0.00 | 0.00 | 0.00 | 34 | 1011.9 |
| 20260504171027 | 23 | 225 | 3.2 | 19.3 | 0.00 | 0.00 | 0.00 | 33 | 1011.9 |
| 20260504170920 | 23 | 269 | 3.2 | 19.3 | 0.00 | 0.00 | 0.00 | 33 | 1011.8 |
| 20260504170815 | 23 | 177 | 3.2 | 19.3 | 0.00 | 0.00 | 0.00 | 34 | 1011.8 |
| 20260504170711 | 23 | 65 | 3.2 | 19.3 | 0.00 | 0.00 | 0.00 | 34 | 1011.8 |
| 20260504170128 | 25 | 265 | 1.6 | 8.0 | 0.00 | 0.00 | 0.00 | 34 | 1011.9 |
| 20260504160446 | 23 | 60 | 3.2 | 11.3 | 0.00 | 0.00 | 0.00 | 35 | 1012.8 |
| 20260504160342 | 23 | 141 | 3.2 | 11.3 | 0.00 | 0.00 | 0.00 | 34 | 1012.7 |
| 20260504160236 | 23 | 73 | 3.2 | 11.3 | 0.00 | 0.00 | 0.00 | 34 | 1012.7 |
| 20260504160133 | 23 | 251 | 1.6 | 11.3 | 0.00 | 0.00 | 0.00 | 33 | 1012.8 |
| 20260504151141 | 21 | 161 | 1.6 | 6.4 | 0.00 | 0.00 | 0.00 | 37 | 1013.5 |
| 20260504151038 | 21 | 203 | 0.0 | 6.4 | 0.00 | 0.00 | 0.00 | 37 | 1013.5 |
| 20260504150935 | 21 | 98 | 1.6 | 6.4 | 0.00 | 0.00 | 0.00 | 37 | 1013.5 |
| 20260504150829 | 21 | 119 | 1.6 | 6.4 | 0.00 | 0.00 | 0.00 | 36 | 1013.4 |
| 20260504150724 | 21 | 75 | 1.6 | 9.7 | 0.00 | 0.00 | 0.00 | 36 | 1013.5 |
| 20260504150622 | 21 | 124 | 0.0 | 9.7 | 0.00 | 0.00 | 0.00 | 37 | 1013.5 |
| 20260504150514 | 21 | 232 | 0.0 | 9.7 | 0.00 | 0.00 | 0.00 | 38 | 1013.5 |
| 20260504150408 | 21 | 159 | 0.0 | 9.7 | 0.00 | 0.00 | 0.00 | 38 | 1013.5 |
| 20260504141310 | 18 | 198 | 0.0 | 8.0 | 0.00 | 0.00 | 0.00 | 48 | 1013.7 |
| 20260504141207 | 18 | 221 | 0.0 | 8.0 | 0.00 | 0.00 | 0.00 | 46 | 1013.7 |
| 20260504140840 | 17 | 120 | 0.0 | 8.0 | 0.00 | 0.00 | 0.00 | 48 | 1013.8 |
| 20260504140738 | 17 | 171 | 0.0 | 8.0 | 0.00 | 0.00 | 0.00 | 49 | 1013.8 |
| 20260504140417 | 17 | 232 | 1.6 | 8.0 | 0.00 | 0.00 | 0.00 | 49 | 1013.8 |
| 20260504140310 | 17 | 28 | 1.6 | 8.0 | 0.00 | 0.00 | 0.00 | 48 | 1013.8 |
| 20260504140208 | 17 | 237 | 1.6 | 8.0 | 0.00 | 0.00 | 0.00 | 47 | 1013.8 |
| 20260504130800 | 11 | 65 | 0.0 | 3.2 | 0.00 | 0.00 | 0.00 | 68 | 1014.1 |
| 20260504130654 | 11 | 64 | 0.0 | 3.2 | 0.00 | 0.00 | 0.00 | 68 | 1014.1 |
| 20260504130547 | 11 | 191 | 0.0 | 3.2 | 0.00 | 0.00 | 0.00 | 69 | 1014.1 |
| 20260504130445 | 11 | 270 | 0.0 | 1.6 | 0.00 | 0.00 | 0.00 | 69 | 1014.2 |
| 20260504120215 | 7 | 78 | 0.0 | 1.6 | 0.00 | 0.00 | 0.00 | 80 | 1014.6 |
| 20260504110652 | 6 | 192 | 0.0 | 0.0 | 0.00 | 0.00 | 0.00 | 83 | 1014.7 |
| 20260504110548 | 6 | 192 | 0.0 | 0.0 | 0.00 | 0.00 | 0.00 | 83 | 1014.7 |
| 20260504110443 | 6 | 192 | 0.0 | 0.0 | 0.00 | 0.00 | 0.00 | 83 | 1014.7 |
| 20260504110337 | 6 | 204 | 0.0 | 0.0 | 0.00 | 0.00 | 0.00 | 83 | 1014.7 |
| 20260504110235 | 6 | 204 | 0.0 | 0.0 | 0.00 | 0.00 | 0.00 | 83 | 1014.7 |
| 20260504110129 | 6 | 204 | 0.0 | 0.0 | 0.00 | 0.00 | 0.00 | 83 | 1014.7 |